sat.trackr.live / text

‹ back to catalog

STARLINK-6164

NORAD 57152 · 2023-090BD

PAYLOAD ACTIVE UNKNOWN

§ Identity

Operator
Country
US
Launch date
2023-06-23
Launch site
AFETR
Launch vehicle
Mass (kg)
RCS (m²)

Purposes: comms

External: N2YO · Heavens-Above · Gunter

§ Orbital elements

Epoch: 2026-05-25T04:28:38.263008Z

Period
94.27 min
Inclination
43.0029°
Eccentricity
0.0001765
Mean motion
15.27578477 rev/d
Perigee alt
481.8 km
Apogee alt
484.3 km
Semi-major
6,861.2 km
B*
2.0330e-5
RAAN
191.2298°
Arg perigee
275.7909°
Mean anomaly
84.2741°
Rev number
16,224

§ Raw data

STARLINK-61641 57152U 23090BD  26145.18655397  .00000297  00000+0  20330-4 0  99952 57152  43.0029 191.2298 0001765 275.7909  84.2741 15.27578477162244

JSON: /api/v1/satellites/57152 · /tle

For live sub-satellite position, see the globe view (requires WebGL).

§ Visibility from observer

Set your observer location to see the next 7 days of passes ≥ 10°. The values pass through the URL so the page stays shareable.

No JS? Fill the form by hand. The geolocation button needs JavaScript.